Find Starlink 11535

NORAD ID: 62595 Int'l Des: 2025-008 Owner: SPXS Country: US Constellation: starlink operational
別名: STARLINK-11535 [DTC] celestrak
LEOCIRCULAR

現在のビュー

3D地球を読み込み中...

About Starlink 11535

Starlink 11535 (NORAD 62595) is a starlink constellation satellite (v2 mini d2c) launched Jan 13, 2025 by SPXS of US. It operates in LEO, CIRCULAR orbit with a mass of 960.00 kg.

次回通過

Passes for default location (London). Set your location on the main map for personalized predictions.

高度履歴

Loading altitude history...

軌道要素

1 62595U 25008J 26263.79503661 .00213975 00000-0 16241-2 0 9991
2 62595 43.0012 29.7378 0001805 279.9373 80.1291 15.70904602 97820
Epoch: Sep 20, 2026 • Age: 15 hours

現在のステータス

高度 357.2 km
遠地点 / 近地点 N/A
速度 7.70 km/s
衛星直下点 32.14°N, 90.72°W
打ち上げ日 Jan 13, 2025
運用期間 1.6 years
タイプ internet

技術仕様

分類 Payload
質量 960.00 kg
乾燥質量 910.00 kg
長さ 0.30 m
スパン 29.00 m
形状 ? Box + pan
製造者 SPXS
バスタイプ Starlink V2MD
フェーズステータス In Orbit
所有者/国 SPXS/US

Most Searched